Location: Bear Trap Landing
(45.2437°N, 67.7928°W)
Time: 01:15:41
(UTC+00:00)

X-37B - Pass Details

Date: 15 March 2021
Orbit: 380 x 394 km, 45.0° (Epoch: 07 April)

Event Time Altitude Azimuth Distance (km) Brightness Sun altitude
Rises 23:09:51 0° 244° (WSW) 2,261 5.6 -6.5°
Reaches altitude 10° 23:11:56 10° 239° (WSW) 1,412 4.4 -6.9°
Maximum altitude 23:15:02 51° 162° (SSE) 495 1.0 -7.4°
Enters shadow 23:18:04 11° 86° (E) 1,386 2.7 -7.9°
